DIA;HORA;TEMPERATURA �C;POTENCIA MW 2021
01/01/2021;23:30;35,8;803
02/01/2021;01:00;28,5;767
03/01/2021;23:30;31;726
04/01/2021;13:00;30,4;814
05/01/2021;21:30;22,3;679
06/01/2021;21:45;28,2;716
07/01/2021;21:45;33,9;772
08/01/2021;13:00;30,2;755
09/01/2021;21:30;32,3;739
10/01/2021;23:30;35,5;784
11/01/2021;13:00;29,9;794
12/01/2021;21:45;27,4;758
13/01/2021;13:00;33,5;829
14/01/2021;13:00;34,3;903
15/01/2021;13:00;33,8;862
16/01/2021;01:00;26,1;760
17/01/2021;21:45;30,5;700
18/01/2021;13:00;34;830
19/01/2021;14:00;35,7;887
20/01/2021;13:00;36,6;938
21/01/2021;14:00;37,4;971
22/01/2021;14:00;38,2;998
23/01/2021;14:00;38,4;947
24/01/2021;23:30;38,4;926
25/01/2021;15:00;36,6;1057
26/01/2021;13:00;32,6;934
27/01/2021;21:45;32,9;893
28/01/2021;01:00;30;841
29/01/2021;13:00;33,3;853
30/01/2021;01:00;21,9;731
31/01/2021;22:15;22;624
01/02/2021;21:45;19,8;690
02/02/2021;21:30;25;698
03/02/2021;21:45;30;724
04/02/2021;21:45;33,2;779
05/02/2021;21:15;34,6;818
06/02/2021;21:30;36,5;816
07/02/2021;01:00;35,4;719
08/02/2021;22:00;17,5;686
09/02/2021;21:30;22,1;694
10/02/2021;21:15;27,3;715
11/02/2021;21:15;30,4;749
12/02/2021;13:00;30,5;736
13/02/2021;21:00;32;716
14/02/2021;20:30;33,4;666
15/02/2021;21:30;27,4;674
16/02/2021;21:45;27,6;697
17/02/2021;21:45;32;776
18/02/2021;21:00;31,6;793
19/02/2021;21:15;23,6;725
20/02/2021;21:00;29,1;723
21/02/2021;21:15;31,7;717
22/02/2021;21:00;27,4;757
23/02/2021;21:15;33,3;797
24/02/2021;21:00;33,5;846
25/02/2021;16:00;35,1;916
26/02/2021;17:00;36,4;971
27/02/2021;21:00;32,3;827
28/02/2021;22:15;32,1;794
01/03/2021;21:15;31,9;815
02/03/2021;20:45;29,4;786
03/03/2021;20:30;32,5;833
04/03/2021;20:45;35,3;888
05/03/2021;20:30;33,6;915
06/03/2021;20:45;35,9;882
07/03/2021;22:15;36,5;846
08/03/2021;20:45;26,8;790
09/03/2021;20:45;32,7;873
10/03/2021;20:45;35,6;930
11/03/2021;20:45;28,5;830
12/03/2021;13:00;26,7;794
13/03/2021;20:45;29,9;746
14/03/2021;21:00;28,2;697
15/03/2021;13:00;26,8;734
16/03/2021;20:45;27,8;737
17/03/2021;20:45;19,1;706
18/03/2021;20:30;14,8;747
19/03/2021;21:15;21,3;724
20/03/2021;21:15;24;688
21/03/2021;21:00;26,1;660
22/03/2021;21:00;25,8;724
23/03/2021;20:45;29;746
24/03/2021;20:45;27,5;722
25/03/2021;20:30;20,6;740
26/03/2021;20:45;19,3;724
27/03/2021;21:00;24,4;685
28/03/2021;21:15;26,4;650
29/03/2021;20:45;28;734
30/03/2021;20:15;29;735
31/03/2021;20:30;28,2;741
01/04/2021;20:15;27,5;729
02/04/2021;21:30;28,6;664
03/04/2021;20:30;30;706
04/04/2021;21:15;29,3;657
05/04/2021;20:30;30;706
06/04/2021;20:15;28,9;767
07/04/2021;20:15;22,8;737
08/04/2021;20:45;23,6;729
09/04/2021;20:30;17,7;733
10/04/2021;20:15;13,5;706
11/04/2021;22:00;23,2;675
12/04/2021;21:15;25,8;729
13/04/2021;21:15;27,1;741
14/04/2021;20:45;27,7;739
15/04/2021;20:30;29,3;747
16/04/2021;20:15;29,2;738
17/04/2021;20:15;27,4;684
18/04/2021;21:15;28,1;663
19/04/2021;20:00;30;770
20/04/2021;20:00;29,3;746
21/04/2021;20:45;23,7;732
22/04/2021;21:00;21,4;737
23/04/2021;20:30;23,6;737
24/04/2021;20:45;22,1;699
25/04/2021;21:15;24,1;666
26/04/2021;21:00;25;726
27/04/2021;20:45;25,5;732
28/04/2021;20:15;26,5;741
29/04/2021;21:00;26,7;732
30/04/2021;20:00;24,4;837
01/05/2021;21:15;23,4;744
02/05/2021;21:15;22,9;664
03/05/2021;21:15;20,2;734
04/05/2021;20:30;12,8;796
05/05/2021;21:30;16,9;806
06/05/2021;21:30;19,9;800
07/05/2021;11:00;19,8;778
08/05/2021;21:15;19,4;731
09/05/2021;21:45;18,1;711
10/05/2021;21:00;18,6;791
11/05/2021;21:30;19,3;792
12/05/2021;21:15;21,6;790
13/05/2021;21:15;21,5;781
14/05/2021;21:15;22,7;763
15/05/2021;21:00;22,1;726
16/05/2021;21:15;21,6;714
17/05/2021;21:30;21,7;769
18/05/2021;21:00;21,8;765
19/05/2021;20:15;23,3;762
20/05/2021;20:00;16,8;767
21/05/2021;20:15;15,3;777
22/05/2021;21:00;17,5;754
23/05/2021;20:00;16,4;725
24/05/2021;21:45;19,1;816
25/05/2021;19:30;22,5;755
26/05/2021;21:30;22,5;755
27/05/2021;20:45;21;752
28/05/2021;21:30;16,6;745
29/05/2021;20:45;16,2;731
30/05/2021;21:00;18,5;726
31/05/2021;21:15;20,9;762
01/06/2021;21:30;22,3;770
02/06/2021;21:00;19,4;772
03/06/2021;21:30;21,9;772
04/06/2021;21:00;19,3;767
05/06/2021;21:30;16,9;732
06/06/2021;21:45;17,4;723
07/06/2021;21:30;19,1;795
08/06/2021;21:15;18,9;810
09/06/2021;21:00;21,1;800
10/06/2021;21:00;16,4;814
11/06/2021;21:15;17,7;824
12/06/2021;21:00;21,1;737
13/06/2021;21:30;23,2;726
14/06/2021;20:30;12,8;820
15/06/2021;21:15;8,1;866
16/06/2021;21:00;6,1;886
17/06/2021;20:30;4,3;920
18/06/2021;19:15;5;900
19/06/2021;21:45;9,3;833
20/06/2021;21:45;11,3;787
21/06/2021;21:30;14,2;845
22/06/2021;21:45;14,9;884
23/06/2021;21:15;16,8;870
24/06/2021;21:00;17,3;856
25/06/2021;20:15;16,8;836
26/06/2021;20:45;10,1;828
27/06/2021;21:30;8,9;846
28/06/2021;21:30;11,5;908
29/06/2021;22:00;13;916
30/06/2021;20:30;13,3;898
01/07/2021;21:15;15,7;881
02/07/2021;20:45;16,6;845
03/07/2021;20:45;17,2;818
04/07/2021;21:45;18,8;802
05/07/2021;21:30;19;858
06/07/2021;21:00;19,2;832
07/07/2021;21:15;18,3;832
08/07/2021;21:00;19,3;802
09/07/2021;21:15;22,5;743
10/07/2021;20:45;16,7;766
11/07/2021;21:00;19,1;753
12/07/2021;21:30;19,4;805
13/07/2021;21:30;18,2;821
14/07/2021;20:45;19,1;814
15/07/2021;21:00;18,1;826
16/07/2021;20:00;19,1;799
17/07/2021;21:00;12,3;803
18/07/2021;21:45;14;805
19/07/2021;21:30;16,3;859
20/07/2021;20:30;18,8;836
21/07/2021;21:15;20,9;834
22/07/2021;21:00;20,9;822
23/07/2021;20:45;20,6;796
24/07/2021;21:15;16,8;769
25/07/2021;21:45;17,2;756
26/07/2021;21:45;15;828
27/07/2021;21:15;14,5;861
28/07/2021;22:00;13,2;884
29/07/2021;21:30;15,8;878
30/07/2021;11:00;17,3;958
31/07/2021;21:00;18,9;876
01/08/2021;21:45;18,2;810
02/08/2021;21:00;20,8;821
03/08/2021;21:15;22,7;807
04/08/2021;22:00;22,2;782
05/08/2021;21:30;22,9;775
06/08/2021;11:00;24;747
07/08/2021;20:45;18,1;727
08/08/2021;21:30;14,2;757
09/08/2021;21:45;13,1;833
10/08/2021;21:15;16,7;835
11/08/2021;21:30;17,4;842
12/08/2021;21:30;17,7;831
13/08/2021;21:15;18,5;819
14/08/2021;21:00;21;757
15/08/2021;21:30;20,9;712
16/08/2021;21:30;24,9;748
17/08/2021;22:00;23,3;781
18/08/2021;11:00;27,3;749
19/08/2021;21:15;22,5;756
20/08/2021;21:45;18,8;778
21/08/2021;21:15;23;715
22/08/2021;22:00;20,8;828
23/08/2021;21:15;14,2;828
24/08/2021;21:30;17,3;830
25/08/2021;21:00;20,3;805
26/08/2021;11:00;22,2;799
27/08/2021;11:00;19,2;822
28/08/2021;11:00;23,8;719
29/08/2021;21:15;26,2;694
30/08/2021;11:00;28,3;736
31/08/2021;12:00;28,7;732
01/09/2021;21:30;22,80;736
02/09/2021;11:00;20,60;745
03/09/2021;11:00;19,30;758
04/09/2021;20:45;23,00;684
05/09/2021;21:15;24,70;666
06/09/2021;12:00;22,30;815
07/09/2021;21:30;13,50;792
08/09/2021;21:30;18,30;788
09/09/2021;21:30;19,10;774
10/09/2021;21:15;22,90;743
11/09/2021;20:45;26,10;687
12/09/2021;21:30;26,80;654
13/09/2021;19:45;17,80;830
14/09/2021;21:15;19,10;783
15/09/2021;20:45;22,60;769
16/09/2021;12:00;25,30;764
17/09/2021;12:00;27,60;741
18/09/2021;20:30;26,00;691
19/09/2021;21:15;23,90;655
20/09/2021;21:15;19,20;737
21/09/2021;12:00;22,30;738
22/09/2021;21:15;23,90;725
23/09/2021;21:00;26,70;746
24/09/2021;12:00;28,70;750
25/09/2021;21:15;32,70;685
26/09/2021;21:00;21,20;654
27/09/2021;21:15;22,30;717
28/09/2021;21:30;23,50;738
29/09/2021;12:00;28,30;746
30/09/2021;20:15;24,60;785
